User: anonymous   Login
Location: Caltech
(34.1382°N, 118.1253°W)
Time: 03:34:14
(UTC-07:00)
Language:

SO-50 - Orbit

View from above orbital plane
View from above orbital plane
View from above satellite
View from above satellite

Ground track
Ground track

The orbit data is extracted from the following two-line orbital elements,

1 27607U 02058C   16268.00530017  .00000100  00000-0  35122-4 0  9994
2 27607  64.5549 218.9152 0056922 194.5904 165.3558 14.75212519739842
Epoch (UTC): 24 September 2016 00:07:37
Eccentricity: 0.0056922
inclination: 64.5549°
perigee height: 604 km
apogee height: 684 km
right ascension of ascending node: 218.9152°
argument of perigee: 194.5904°
revolutions per day: 14.75212519
mean anomaly at epoch: 165.3558°
orbit number at epoch: 73984

The dashed part of the orbit path shows where the satellite is in the earth's shadow,  

DLR